Regional Weather Roundup
Issued by NWS

Home | Current Version | Previous Version | Graphics & Text | Print | Product List | Glossary On
Versions: 1 2 3 4 5 6 7 8 9 10 11 12 13 14 15 16 17 18 19 20 21 22 23 24 25 26 27 28 29 30 31 32 33 34 35 36 37 38 39 40 41 42 43 44 45 46 47 48 49 50
000
ASUS43 KBIS 190231
RWRND
NORTH DAKOTA REGIONAL WEATHER ROUNDUP
NATIONAL WEATHER SERVICE EASTERN NORTH DAKOTA/GRAND FORKS ND
900 PM CDT WED APR 18 2018

  NOTE: "FAIR" INDICATES FEW OR NO CLOUDS BELOW 12,000 FEET WITH NO
  SIGNIFICANT WEATHER AND/OR OBSTRUCTIONS TO VISIBILITY.

NDZ001>003-009>011-017-190300-
...NORTHWEST NORTH DAKOTA...

CITY           SKY/WX    TMP DP  RH WIND       PRES   REMARKS
WILLISTON      CLOUDY    38  34  85 N10       30.29R WCI  31
MINOT          FAIR      39  35  86 W9        30.26R WCI  33
MINOT AFB      MOCLDY    39  36  87 NW8       30.25R WCI  34
$$

NDZ018>021-031>035-040>046-190300-
...SOUTHWEST NORTH DAKOTA...

CITY           SKY/WX    TMP DP  RH WIND       PRES   REMARKS
BISMARCK       FAIR      43  32  65 N3        30.27R
DICKINSON      FAIR      39  33  79 NE7       30.23R WCI  34
GARRISON         N/A     37  34  89 NW8       30.26R WCI  31
HETTINGER      FAIR      38  31  76 NE6       30.24R WCI  33
$$

NDZ004>008-012>016-024-026-027-054-190300-
...NORTHEAST NORTH DAKOTA...

CITY           SKY/WX    TMP DP  RH WIND       PRES   REMARKS
GRAND FORKS    MOCLDY    37  30  75 N7        30.23R WCI  32
GRAND FORKS AF FAIR      37  28  69 N3        30.23R
DEVILS LAKE    FAIR      42  25  50 W6        30.25R
$$

NDZ022-023-025-028>030-036>039-047>053-190300-
...SOUTHEAST NORTH DAKOTA...

CITY           SKY/WX    TMP DP  RH WIND       PRES   REMARKS
JAMESTOWN      FAIR      39  32  76 E3        30.23R
FARGO          FAIR      38  33  82 N10       30.21R WCI  31
WAHPETON       FAIR      41  32  70 W5        30.21R
$$




USA.gov is the U.S. government's official web portal to all federal, state and local government web resources and services.